Location: Ferma
(41.9500°N, 44.5167°E)
Time: 19:36:44
(UTC+00:00)

Cosmos 2100 Rocket - Pass Details

Date: 24 October 2021
Orbit: 955 x 1001 km, 82.9° (Epoch: 02 December)

Event Time Altitude Azimuth Distance (km) Brightness Sun altitude
Rises 16:32:03 0° 188° (S) 3,675 7.0 -27.6°
Reaches altitude 10° 16:34:32 10° 190° (S) 2,737 6.3 -28.1°
Maximum altitude 16:40:50 81° 277° (W) 1,011 4.0 -29.2°
Drops below altitude 10° 16:47:15 10° 6° (N) 2,778 6.4 -30.4°
Sets 16:49:48 0° 7° (N) 3,733 7.1 -30.9°
